| time (UTC) | temp C | wind direction | speed KPH | gust KPH | rain 1hr cm | rain 24hr cm | rain mn cm | humidity % | barometer mb |
| 20260906025335 | 29 | 175 | 9.7 | 17.7 | 0.00 | 0.00 | 0.00 | 46 | 1016.2 |
| 20260906024833 | 30 | 155 | 20.9 | 22.5 | 0.00 | 0.00 | 0.00 | 44 | 1016.6 |
| 20260906024328 | 30 | 173 | 14.5 | 29.0 | 0.00 | 0.00 | 0.00 | 42 | 1016.3 |
| 20260906023823 | 29 | 151 | 12.9 | 17.7 | 0.00 | 0.00 | 0.00 | 45 | 1016.5 |
| 20260906023319 | 28 | 219 | 14.5 | 17.7 | 0.00 | 0.00 | 0.00 | 47 | 1016.6 |
| 20260906022814 | 28 | 184 | 6.4 | 16.1 | 0.00 | 0.00 | 0.00 | 48 | 1016.5 |
| 20260906022309 | 29 | 213 | 11.3 | 17.7 | 0.00 | 0.00 | 0.00 | 45 | 1016.5 |
| 20260906021804 | 30 | 138 | 9.7 | 12.9 | 0.00 | 0.00 | 0.00 | 44 | 1016.2 |
| 20260906021258 | 30 | 161 | 8.0 | 12.9 | 0.00 | 0.00 | 0.00 | 44 | 1016.2 |
| 20260906020752 | 30 | 147 | 11.3 | 14.5 | 0.00 | 0.00 | 0.00 | 43 | 1016.2 |
| 20260906020247 | 30 | 151 | 6.4 | 11.3 | 0.00 | 0.00 | 0.00 | 43 | 1016.1 |
| 20260906015747 | 30 | 141 | 9.7 | 14.5 | 0.00 | 0.00 | 0.00 | 43 | 1016.0 |
| 20260906015245 | 30 | 140 | 11.3 | 16.1 | 0.00 | 0.00 | 0.00 | 44 | 1015.7 |
| 20260906014740 | 30 | 148 | 6.4 | 16.1 | 0.00 | 0.00 | 0.00 | 43 | 1015.6 |
| 20260906014236 | 30 | 144 | 6.4 | 17.7 | 0.00 | 0.00 | 0.00 | 43 | 1015.5 |
| 20260906013732 | 30 | 128 | 11.3 | 14.5 | 0.00 | 0.00 | 0.00 | 43 | 1015.5 |
| 20260906013231 | 31 | 140 | 12.9 | 17.7 | 0.00 | 0.00 | 0.00 | 43 | 1015.1 |
| 20260906012727 | 31 | 131 | 9.7 | 12.9 | 0.00 | 0.00 | 0.00 | 43 | 1015.2 |
| 20260906012222 | 31 | 114 | 6.4 | 19.3 | 0.00 | 0.00 | 0.00 | 43 | 1015.2 |
| 20260906011717 | 31 | 161 | 11.3 | 16.1 | 0.00 | 0.00 | 0.00 | 43 | 1015.0 |
| 20260906011212 | 31 | 114 | 12.9 | 17.7 | 0.00 | 0.00 | 0.00 | 42 | 1015.0 |
| 20260906010707 | 31 | 132 | 11.3 | 19.3 | 0.00 | 0.00 | 0.00 | 42 | 1015.0 |
| 20260906010203 | 31 | 140 | 6.4 | 11.3 | 0.00 | 0.00 | 0.00 | 42 | 1015.0 |
| 20260906005702 | 31 | 106 | 6.4 | 16.1 | 0.00 | 0.00 | 0.00 | 42 | 1015.1 |
| 20260906005157 | 31 | 134 | 9.7 | 16.1 | 0.00 | 0.00 | 0.00 | 42 | 1015.1 |
| 20260906004656 | 32 | 153 | 9.7 | 16.1 | 0.00 | 0.00 | 0.00 | 41 | 1014.9 |
| 20260906004151 | 32 | 146 | 9.7 | 16.1 | 0.00 | 0.00 | 0.00 | 41 | 1015.0 |
| 20260906003646 | 32 | 148 | 12.9 | 14.5 | 0.00 | 0.00 | 0.00 | 41 | 1015.0 |
| 20260906003142 | 32 | 138 | 12.9 | 17.7 | 0.00 | 0.00 | 0.00 | 40 | 1015.1 |
| 20260906002637 | 32 | 142 | 8.0 | 17.7 | 0.00 | 0.00 | 0.00 | 40 | 1014.8 |
| 20260906002131 | 32 | 146 | 6.4 | 19.3 | 0.00 | 0.00 | 0.00 | 39 | 1014.7 |
| 20260906001627 | 32 | 147 | 8.0 | 20.9 | 0.00 | 0.00 | 0.00 | 39 | 1014.9 |
| 20260906001126 | 33 | 139 | 11.3 | 20.9 | 0.00 | 0.00 | 0.00 | 38 | 1014.7 |
| 20260906000622 | 33 | 129 | 11.3 | 20.9 | 0.00 | 0.00 | 0.00 | 38 | 1014.9 |
| 20260906000118 | 33 | 153 | 14.5 | 27.4 | 0.00 | 0.00 | 0.00 | 38 | 1014.6 |
| 20260905235616 | 33 | 152 | 12.9 | 27.4 | 0.00 | 0.00 | 0.00 | 38 | 1014.3 |
| 20260905235111 | 33 | 142 | 12.9 | 25.7 | 0.00 | 0.00 | 0.00 | 37 | 1014.5 |
| 20260905234607 | 33 | 146 | 17.7 | 27.4 | 0.00 | 0.00 | 0.00 | 37 | 1014.3 |
| 20260905234101 | 33 | 147 | 17.7 | 25.7 | 0.00 | 0.00 | 0.00 | 37 | 1014.3 |
| 20260905233556 | 34 | 138 | 22.5 | 33.8 | 0.00 | 0.00 | 0.00 | 37 | 1014.1 |
| 20260905233051 | 35 | 145 | 17.7 | 25.7 | 0.00 | 0.00 | 0.00 | 36 | 1014.1 |
| 20260905232546 | 35 | 138 | 9.7 | 17.7 | 0.00 | 0.00 | 0.00 | 35 | 1014.1 |
| 20260905232042 | 35 | 143 | 12.9 | 24.1 | 0.00 | 0.00 | 0.00 | 33 | 1014.1 |
| 20260905231537 | 35 | 134 | 16.1 | 22.5 | 0.00 | 0.00 | 0.00 | 34 | 1013.9 |
| 20260905231033 | 36 | 154 | 16.1 | 17.7 | 0.00 | 0.00 | 0.00 | 32 | 1014.0 |
| 20260905230532 | 36 | 155 | 9.7 | 17.7 | 0.00 | 0.00 | 0.00 | 33 | 1013.9 |
| 20260905230030 | 36 | 168 | 12.9 | 17.7 | 0.00 | 0.00 | 0.00 | 32 | 1014.1 |
| 20260905225525 | 36 | 165 | 17.7 | 22.5 | 0.00 | 0.00 | 0.00 | 31 | 1013.9 |
| 20260905225020 | 36 | 168 | 11.3 | 19.3 | 0.00 | 0.00 | 0.00 | 33 | 1014.0 |
| 20260905224515 | 36 | 169 | 19.3 | 22.5 | 0.00 | 0.00 | 0.00 | 32 | 1014.0 |
| 20260905224015 | 35 | 153 | 8.0 | 17.7 | 0.00 | 0.00 | 0.00 | 34 | 1014.1 |
| 20260905223512 | 35 | 163 | 9.7 | 20.9 | 0.00 | 0.00 | 0.00 | 34 | 1014.0 |
| 20260905223007 | 36 | 138 | 11.3 | 16.1 | 0.00 | 0.00 | 0.00 | 34 | 1014.2 |
| 20260905222502 | 35 | 206 | 14.5 | 19.3 | 0.00 | 0.00 | 0.00 | 34 | 1014.2 |
| 20260905221957 | 35 | 161 | 14.5 | 20.9 | 0.00 | 0.00 | 0.00 | 33 | 1013.9 |
| 20260905221454 | 36 | 139 | 16.1 | 25.7 | 0.00 | 0.00 | 0.00 | 32 | 1014.1 |
| 20260905220950 | 35 | 162 | 14.5 | 22.5 | 0.00 | 0.00 | 0.00 | 33 | 1014.1 |
| 20260905220446 | 36 | 161 | 19.3 | 25.7 | 0.00 | 0.00 | 0.00 | 33 | 1014.1 |
| 20260905215944 | 36 | 166 | 16.1 | 24.1 | 0.00 | 0.00 | 0.00 | 33 | 1014.2 |
| 20260905215440 | 36 | 171 | 9.7 | 20.9 | 0.00 | 0.00 | 0.00 | 33 | 1014.5 |
| 20260905214937 | 36 | 156 | 16.1 | 27.4 | 0.00 | 0.00 | 0.00 | 33 | 1014.3 |
| 20260905214432 | 36 | 161 | 14.5 | 29.0 | 0.00 | 0.00 | 0.00 | 33 | 1014.3 |
| 20260905213931 | 35 | 161 | 11.3 | 22.5 | 0.00 | 0.00 | 0.00 | 34 | 1014.3 |
| 20260905213428 | 36 | 154 | 11.3 | 22.5 | 0.00 | 0.00 | 0.00 | 33 | 1014.5 |
| 20260905212923 | 37 | 182 | 12.9 | 29.0 | 0.00 | 0.00 | 0.00 | 32 | 1014.5 |
| 20260905212418 | 36 | 159 | 8.0 | 11.3 | 0.00 | 0.00 | 0.00 | 35 | 1014.7 |
| 20260905211917 | 36 | 143 | 9.7 | 16.1 | 0.00 | 0.00 | 0.00 | 36 | 1014.7 |
| 20260905211413 | 36 | 147 | 16.1 | 20.9 | 0.00 | 0.00 | 0.00 | 35 | 1014.8 |
| 20260905210909 | 35 | 169 | 9.7 | 14.5 | 0.00 | 0.00 | 0.00 | 36 | 1015.1 |
| 20260905210403 | 35 | 142 | 16.1 | 22.5 | 0.00 | 0.00 | 0.00 | 35 | 1014.9 |
| 20260905205903 | 36 | 164 | 14.5 | 20.9 | 0.00 | 0.00 | 0.00 | 35 | 1015.0 |
| 20260905205357 | 35 | 192 | 9.7 | 14.5 | 0.00 | 0.00 | 0.00 | 33 | 1015.1 |
| 20260905204856 | 36 | 149 | 12.9 | 22.5 | 0.00 | 0.00 | 0.00 | 34 | 1015.2 |
| 20260905204352 | 36 | 180 | 6.4 | 20.9 | 0.00 | 0.00 | 0.00 | 33 | 1015.5 |
| 20260905203845 | 36 | 136 | 9.7 | 19.3 | 0.00 | 0.00 | 0.00 | 34 | 1015.5 |
| 20260905203341 | 36 | 137 | 6.4 | 9.7 | 0.00 | 0.00 | 0.00 | 36 | 1015.2 |
| 20260905202837 | 36 | 164 | 19.3 | 27.4 | 0.00 | 0.00 | 0.00 | 34 | 1015.7 |
| 20260905202331 | 36 | 172 | 3.2 | 16.1 | 0.00 | 0.00 | 0.00 | 36 | 1015.5 |
| 20260905201827 | 35 | 158 | 17.7 | 24.1 | 0.00 | 0.00 | 0.00 | 35 | 1015.7 |
| 20260905201322 | 36 | 187 | 17.7 | 25.7 | 0.00 | 0.00 | 0.00 | 33 | 1015.7 |
| 20260905200817 | 35 | 192 | 6.4 | 20.9 | 0.00 | 0.00 | 0.00 | 35 | 1015.8 |
| 20260905200313 | 36 | 197 | 27.4 | 27.4 | 0.00 | 0.00 | 0.00 | 33 | 1015.9 |
| 20260905195810 | 35 | 167 | 11.3 | 14.5 | 0.00 | 0.00 | 0.00 | 36 | 1015.9 |
| 20260905195307 | 35 | 160 | 11.3 | 14.5 | 0.00 | 0.00 | 0.00 | 34 | 1016.0 |
| 20260905194802 | 35 | 157 | 8.0 | 19.3 | 0.00 | 0.00 | 0.00 | 36 | 1015.9 |
| 20260905194300 | 35 | 155 | 19.3 | 27.4 | 0.00 | 0.00 | 0.00 | 35 | 1016.1 |
| 20260905193755 | 35 | 177 | 3.2 | 11.3 | 0.00 | 0.00 | 0.00 | 37 | 1016.0 |
| 20260905193249 | 35 | 180 | 12.9 | 25.7 | 0.00 | 0.00 | 0.00 | 36 | 1016.1 |
| 20260905192745 | 35 | 152 | 12.9 | 20.9 | 0.00 | 0.00 | 0.00 | 36 | 1016.1 |
| 20260905192242 | 35 | 136 | 12.9 | 27.4 | 0.00 | 0.00 | 0.00 | 35 | 1016.3 |
| 20260905191740 | 35 | 160 | 12.9 | 22.5 | 0.00 | 0.00 | 0.00 | 38 | 1016.3 |
| 20260905191239 | 35 | 161 | 12.9 | 24.1 | 0.00 | 0.00 | 0.00 | 38 | 1016.5 |
| 20260905190738 | 35 | 148 | 17.7 | 20.9 | 0.00 | 0.00 | 0.00 | 37 | 1016.5 |
| 20260905190237 | 35 | 163 | 22.5 | 32.2 | 0.00 | 0.00 | 0.00 | 37 | 1016.5 |
| 20260905185736 | 35 | 168 | 12.9 | 24.1 | 0.00 | 0.00 | 0.00 | 37 | 1016.5 |
| 20260905185230 | 35 | 174 | 9.7 | 20.9 | 0.00 | 0.00 | 0.00 | 37 | 1016.8 |
| 20260905184725 | 35 | 179 | 19.3 | 25.7 | 0.00 | 0.00 | 0.00 | 38 | 1016.6 |
| 20260905184224 | 35 | 147 | 17.7 | 22.5 | 0.00 | 0.00 | 0.00 | 40 | 1016.7 |
| 20260905183718 | 35 | 200 | 19.3 | 27.4 | 0.00 | 0.00 | 0.00 | 37 | 1016.8 |
| 20260905183214 | 35 | 202 | 17.7 | 27.4 | 0.00 | 0.00 | 0.00 | 37 | 1016.8 |
| 20260905182712 | 33 | 156 | 14.5 | 24.1 | 0.00 | 0.00 | 0.00 | 40 | 1016.8 |
| 20260905182207 | 34 | 163 | 17.7 | 22.5 | 0.00 | 0.00 | 0.00 | 39 | 1017.0 |
| 20260905181702 | 34 | 171 | 14.5 | 20.9 | 0.00 | 0.00 | 0.00 | 40 | 1016.8 |
| 20260905181201 | 33 | 174 | 12.9 | 20.9 | 0.00 | 0.00 | 0.00 | 41 | 1017.2 |
| 20260905180655 | 33 | 165 | 14.5 | 24.1 | 0.00 | 0.00 | 0.00 | 41 | 1017.0 |
| 20260905180151 | 33 | 161 | 14.5 | 25.7 | 0.00 | 0.00 | 0.00 | 42 | 1017.1 |
| 20260905175649 | 33 | 172 | 14.5 | 25.7 | 0.00 | 0.00 | 0.00 | 42 | 1017.2 |
| 20260905175145 | 33 | 164 | 20.9 | 22.5 | 0.00 | 0.00 | 0.00 | 42 | 1017.5 |
| 20260905174641 | 33 | 201 | 14.5 | 29.0 | 0.00 | 0.00 | 0.00 | 43 | 1017.3 |
| 20260905174136 | 33 | 199 | 17.7 | 20.9 | 0.00 | 0.00 | 0.00 | 44 | 1017.3 |
| 20260905173632 | 32 | 204 | 9.7 | 29.0 | 0.00 | 0.00 | 0.00 | 45 | 1017.3 |
| 20260905173128 | 32 | 159 | 17.7 | 27.4 | 0.00 | 0.00 | 0.00 | 44 | 1017.6 |
| 20260905172626 | 32 | 180 | 17.7 | 24.1 | 0.00 | 0.00 | 0.00 | 44 | 1017.5 |
| 20260905172121 | 32 | 173 | 17.7 | 29.0 | 0.00 | 0.00 | 0.00 | 45 | 1017.5 |
| 20260905171618 | 32 | 183 | 17.7 | 25.7 | 0.00 | 0.00 | 0.00 | 45 | 1017.5 |
| 20260905171113 | 32 | 218 | 24.1 | 29.0 | 0.00 | 0.00 | 0.00 | 46 | 1017.6 |
| 20260905170605 | 32 | 172 | 17.7 | 25.7 | 0.00 | 0.00 | 0.00 | 46 | 1017.6 |
| 20260905170059 | 32 | 150 | 20.9 | 25.7 | 0.00 | 0.00 | 0.00 | 46 | 1017.3 |
| 20260905165554 | 31 | 199 | 17.7 | 22.5 | 0.00 | 0.00 | 0.00 | 47 | 1017.7 |
| 20260905165043 | 31 | 181 | 19.3 | 25.7 | 0.00 | 0.00 | 0.00 | 48 | 1017.7 |
| 20260905164538 | 31 | 173 | 17.7 | 22.5 | 0.00 | 0.00 | 0.00 | 49 | 1017.6 |
| 20260905164033 | 31 | 166 | 16.1 | 22.5 | 0.00 | 0.00 | 0.00 | 49 | 1017.5 |
| 20260905163529 | 30 | 157 | 17.7 | 22.5 | 0.00 | 0.00 | 0.00 | 51 | 1017.6 |
| 20260905163025 | 30 | 157 | 12.9 | 27.4 | 0.00 | 0.00 | 0.00 | 50 | 1017.6 |
| 20260905162520 | 30 | 194 | 14.5 | 29.0 | 0.00 | 0.00 | 0.00 | 50 | 1017.3 |
| 20260905162014 | 30 | 191 | 20.9 | 22.5 | 0.00 | 0.00 | 0.00 | 52 | 1017.2 |
| 20260905161509 | 30 | 191 | 17.7 | 27.4 | 0.00 | 0.00 | 0.00 | 52 | 1017.3 |
| 20260905161006 | 29 | 171 | 11.3 | 24.1 | 0.00 | 0.00 | 0.00 | 55 | 1017.6 |
| 20260905160459 | 29 | 180 | 14.5 | 24.1 | 0.00 | 0.00 | 0.00 | 55 | 1017.5 |
| 20260905155954 | 29 | 175 | 14.5 | 24.1 | 0.00 | 0.00 | 0.00 | 56 | 1017.3 |
| 20260905155449 | 28 | 196 | 8.0 | 25.7 | 0.00 | 0.00 | 0.00 | 58 | 1017.6 |
| 20260905154947 | 28 | 194 | 17.7 | 24.1 | 0.00 | 0.00 | 0.00 | 58 | 1017.6 |
| 20260905154443 | 28 | 166 | 17.7 | 22.5 | 0.00 | 0.00 | 0.00 | 59 | 1017.3 |
| 20260905153938 | 27 | 193 | 12.9 | 22.5 | 0.00 | 0.00 | 0.00 | 61 | 1017.7 |
| 20260905153435 | 28 | 200 | 20.9 | 27.4 | 0.00 | 0.00 | 0.00 | 59 | 1017.7 |
| 20260905152933 | 27 | 168 | 14.5 | 29.0 | 0.00 | 0.00 | 0.00 | 61 | 1017.6 |
| 20260905152433 | 27 | 206 | 17.7 | 27.4 | 0.00 | 0.00 | 0.00 | 63 | 1017.5 |
| 20260905151928 | 26 | 203 | 16.1 | 24.1 | 0.00 | 0.00 | 0.00 | 64 | 1017.6 |
| 20260905151424 | 26 | 182 | 14.5 | 22.5 | 0.00 | 0.00 | 0.00 | 63 | 1017.5 |
| 20260905150919 | 26 | 195 | 19.3 | 24.1 | 0.00 | 0.00 | 0.00 | 64 | 1017.7 |
| 20260905150418 | 26 | 182 | 14.5 | 22.5 | 0.00 | 0.00 | 0.00 | 65 | 1017.7 |
| 20260905145915 | 26 | 163 | 17.7 | 20.9 | 0.00 | 0.00 | 0.00 | 65 | 1017.6 |
| 20260905145410 | 26 | 173 | 14.5 | 20.9 | 0.00 | 0.00 | 0.00 | 66 | 1017.7 |
| 20260905144909 | 26 | 195 | 19.3 | 24.1 | 0.00 | 0.00 | 0.00 | 66 | 1017.6 |
| 20260905144405 | 25 | 202 | 16.1 | 20.9 | 0.00 | 0.00 | 0.00 | 66 | 1017.7 |
| 20260905143903 | 25 | 160 | 12.9 | 19.3 | 0.00 | 0.00 | 0.00 | 67 | 1017.6 |
| 20260905143357 | 25 | 164 | 16.1 | 20.9 | 0.00 | 0.00 | 0.00 | 68 | 1017.7 |
| 20260905142852 | 25 | 161 | 16.1 | 20.9 | 0.00 | 0.00 | 0.00 | 68 | 1017.6 |
| 20260905142350 | 25 | 175 | 17.7 | 19.3 | 0.00 | 0.00 | 0.00 | 68 | 1017.7 |
| 20260905141847 | 24 | 149 | 12.9 | 17.7 | 0.00 | 0.00 | 0.00 | 69 | 1017.7 |
| 20260905141342 | 24 | 146 | 12.9 | 19.3 | 0.00 | 0.00 | 0.00 | 70 | 1017.6 |
| 20260905140837 | 23 | 147 | 9.7 | 19.3 | 0.00 | 0.00 | 0.00 | 71 | 1017.9 |
| 20260905140332 | 23 | 146 | 12.9 | 12.9 | 0.00 | 0.00 | 0.00 | 71 | 1017.8 |
| 20260905135830 | 23 | 137 | 8.0 | 16.1 | 0.00 | 0.00 | 0.00 | 72 | 1017.8 |
| 20260905135326 | 23 | 141 | 8.0 | 14.5 | 0.00 | 0.00 | 0.00 | 73 | 1017.7 |
| 20260905134821 | 23 | 131 | 12.9 | 19.3 | 0.00 | 0.00 | 0.00 | 73 | 1017.7 |
| 20260905134314 | 23 | 148 | 9.7 | 17.7 | 0.00 | 0.00 | 0.00 | 74 | 1017.5 |
| 20260905133809 | 22 | 141 | 11.3 | 14.5 | 0.00 | 0.00 | 0.00 | 74 | 1017.1 |
| 20260905133305 | 22 | 145 | 9.7 | 16.1 | 0.00 | 0.00 | 0.00 | 75 | 1017.0 |
| 20260905132803 | 22 | 136 | 14.5 | 20.9 | 0.00 | 0.00 | 0.00 | 75 | 1017.3 |
| 20260905132259 | 22 | 153 | 9.7 | 20.9 | 0.00 | 0.00 | 0.00 | 76 | 1017.0 |
| 20260905131754 | 22 | 137 | 12.9 | 24.1 | 0.00 | 0.00 | 0.00 | 77 | 1017.1 |
| 20260905131249 | 22 | 130 | 14.5 | 19.3 | 0.00 | 0.00 | 0.00 | 77 | 1017.0 |
| 20260905130743 | 22 | 125 | 14.5 | 17.7 | 0.00 | 0.00 | 0.00 | 77 | 1017.0 |
| 20260905130237 | 21 | 137 | 12.9 | 20.9 | 0.00 | 0.00 | 0.00 | 77 | 1016.8 |
| 20260905125733 | 21 | 140 | 14.5 | 19.3 | 0.00 | 0.00 | 0.00 | 78 | 1016.6 |
| 20260905125228 | 21 | 144 | 14.5 | 20.9 | 0.00 | 0.00 | 0.00 | 78 | 1016.9 |
| 20260905124725 | 21 | 129 | 14.5 | 20.9 | 0.00 | 0.00 | 0.00 | 78 | 1016.8 |
| 20260905124220 | 21 | 133 | 8.0 | 12.9 | 0.00 | 0.00 | 0.00 | 80 | 1017.1 |
| 20260905123714 | 21 | 135 | 9.7 | 17.7 | 0.00 | 0.00 | 0.00 | 78 | 1016.7 |
| 20260905123212 | 22 | 146 | 12.9 | 20.9 | 0.00 | 0.00 | 0.00 | 77 | 1016.3 |
| 20260905122711 | 21 | 163 | 11.3 | 19.3 | 0.00 | 0.00 | 0.00 | 78 | 1016.7 |
| 20260905122205 | 22 | 152 | 14.5 | 19.3 | 0.00 | 0.00 | 0.00 | 77 | 1016.3 |
| 20260905121700 | 22 | 156 | 16.1 | 19.3 | 0.00 | 0.00 | 0.00 | 77 | 1016.6 |
| 20260905121156 | 21 | 148 | 11.3 | 16.1 | 0.00 | 0.00 | 0.00 | 78 | 1016.3 |
| 20260905120655 | 21 | 128 | 11.3 | 17.7 | 0.00 | 0.00 | 0.00 | 78 | 1016.3 |
| 20260905120149 | 22 | 141 | 8.0 | 12.9 | 0.00 | 0.00 | 0.00 | 77 | 1016.6 |
| 20260905115644 | 22 | 134 | 6.4 | 17.7 | 0.00 | 0.00 | 0.00 | 76 | 1016.5 |
| 20260905115139 | 22 | 145 | 12.9 | 14.5 | 0.00 | 0.00 | 0.00 | 76 | 1016.5 |
| 20260905114639 | 22 | 143 | 8.0 | 14.5 | 0.00 | 0.00 | 0.00 | 76 | 1016.5 |
| 20260905114137 | 22 | 131 | 9.7 | 14.5 | 0.00 | 0.00 | 0.00 | 77 | 1016.5 |
| 20260905113632 | 21 | 134 | 8.0 | 16.1 | 0.00 | 0.00 | 0.00 | 78 | 1016.6 |
| 20260905113127 | 21 | 136 | 9.7 | 11.3 | 0.00 | 0.00 | 0.00 | 80 | 1016.6 |
| 20260905112621 | 20 | 89 | 9.7 | 16.1 | 0.00 | 0.00 | 0.00 | 82 | 1016.6 |
| 20260905112117 | 20 | 105 | 12.9 | 16.1 | 0.00 | 0.00 | 0.00 | 82 | 1016.5 |
| 20260905111612 | 20 | 98 | 6.4 | 6.4 | 0.00 | 0.00 | 0.00 | 83 | 1016.5 |
| 20260905111111 | 20 | 35 | 0.0 | 0.0 | 0.00 | 0.00 | 0.00 | 84 | 1016.2 |
| 20260905110610 | 20 | 98 | 0.0 | 0.0 | 0.00 | 0.00 | 0.00 | 83 | 1016.2 |
| 20260905110106 | 20 | 80 | 0.0 | 1.6 | 0.00 | 0.00 | 0.00 | 83 | 1016.1 |
| 20260905105601 | 20 | 164 | 0.0 | 0.0 | 0.00 | 0.00 | 0.00 | 83 | 1016.1 |
| 20260905105100 | 20 | 155 | 0.0 | 4.8 | 0.00 | 0.00 | 0.00 | 83 | 1015.9 |
| 20260905104556 | 20 | 150 | 4.8 | 6.4 | 0.00 | 0.00 | 0.00 | 83 | 1015.9 |
| 20260905104055 | 20 | 166 | 4.8 | 6.4 | 0.00 | 0.00 | 0.00 | 82 | 1015.7 |
| 20260905103550 | 21 | 177 | 3.2 | 6.4 | 0.00 | 0.00 | 0.00 | 82 | 1015.8 |
| 20260905103047 | 21 | 181 | 6.4 | 6.4 | 0.00 | 0.00 | 0.00 | 82 | 1015.9 |
| 20260905102542 | 21 | 165 | 6.4 | 8.0 | 0.00 | 0.00 | 0.00 | 82 | 1015.8 |
| 20260905102039 | 20 | 157 | 6.4 | 6.4 | 0.00 | 0.00 | 0.00 | 82 | 1015.9 |
| 20260905101537 | 21 | 187 | 4.8 | 6.4 | 0.00 | 0.00 | 0.00 | 81 | 1016.0 |
| 20260905101035 | 21 | 182 | 4.8 | 6.4 | 0.00 | 0.00 | 0.00 | 81 | 1016.0 |
| 20260905100532 | 21 | 180 | 3.2 | 6.4 | 0.00 | 0.00 | 0.00 | 80 | 1016.0 |
| 20260905100032 | 21 | 160 | 6.4 | 6.4 | 0.00 | 0.00 | 0.00 | 79 | 1016.0 |
| 20260905095526 | 21 | 184 | 4.8 | 9.7 | 0.00 | 0.00 | 0.00 | 79 | 1015.9 |
| 20260905095021 | 21 | 175 | 6.4 | 6.4 | 0.00 | 0.00 | 0.00 | 79 | 1016.0 |
| 20260905094516 | 21 | 165 | 8.0 | 9.7 | 0.00 | 0.00 | 0.00 | 79 | 1016.1 |
| 20260905094015 | 21 | 171 | 4.8 | 8.0 | 0.00 | 0.00 | 0.00 | 80 | 1016.1 |
| 20260905093510 | 20 | 173 | 4.8 | 6.4 | 0.00 | 0.00 | 0.00 | 81 | 1016.3 |
| 20260905093006 | 20 | 186 | 3.2 | 4.8 | 0.00 | 0.00 | 0.00 | 81 | 1016.3 |
| 20260905092501 | 20 | 161 | 3.2 | 6.4 | 0.00 | 0.00 | 0.00 | 81 | 1016.3 |
| 20260905091951 | 20 | 162 | 3.2 | 4.8 | 0.00 | 0.00 | 0.00 | 80 | 1016.2 |
| 20260905091451 | 21 | 161 | 4.8 | 6.4 | 0.00 | 0.00 | 0.00 | 80 | 1016.2 |
| 20260905090950 | 21 | 180 | 4.8 | 6.4 | 0.00 | 0.00 | 0.00 | 80 | 1016.5 |
| 20260905090445 | 21 | 163 | 6.4 | 8.0 | 0.00 | 0.00 | 0.00 | 79 | 1016.1 |
| 20260905085944 | 21 | 164 | 4.8 | 6.4 | 0.00 | 0.00 | 0.00 | 78 | 1016.3 |
| 20260905085444 | 21 | 162 | 6.4 | 6.4 | 0.00 | 0.00 | 0.00 | 77 | 1016.2 |
| 20260905084940 | 22 | 165 | 6.4 | 8.0 | 0.00 | 0.00 | 0.00 | 75 | 1016.3 |
| 20260905084439 | 22 | 181 | 6.4 | 9.7 | 0.00 | 0.00 | 0.00 | 74 | 1016.2 |
| 20260905083934 | 22 | 178 | 6.4 | 9.7 | 0.00 | 0.00 | 0.00 | 74 | 1016.5 |
| 20260905083430 | 22 | 165 | 6.4 | 12.9 | 0.00 | 0.00 | 0.00 | 73 | 1016.2 |
| 20260905082925 | 22 | 166 | 8.0 | 11.3 | 0.00 | 0.00 | 0.00 | 72 | 1016.2 |
| 20260905082421 | 22 | 180 | 9.7 | 14.5 | 0.00 | 0.00 | 0.00 | 71 | 1016.1 |
| 20260905081916 | 23 | 184 | 11.3 | 12.9 | 0.00 | 0.00 | 0.00 | 70 | 1016.2 |
| 20260905081411 | 23 | 174 | 8.0 | 16.1 | 0.00 | 0.00 | 0.00 | 70 | 1016.3 |
| 20260905080910 | 23 | 172 | 9.7 | 16.1 | 0.00 | 0.00 | 0.00 | 69 | 1016.3 |
| 20260905080409 | 23 | 177 | 9.7 | 16.1 | 0.00 | 0.00 | 0.00 | 69 | 1016.1 |
| 20260905075909 | 23 | 180 | 9.7 | 17.7 | 0.00 | 0.00 | 0.00 | 68 | 1016.2 |
| 20260905075404 | 23 | 163 | 12.9 | 16.1 | 0.00 | 0.00 | 0.00 | 69 | 1016.2 |
| 20260905074903 | 23 | 177 | 11.3 | 16.1 | 0.00 | 0.00 | 0.00 | 69 | 1016.2 |
| 20260905074359 | 23 | 183 | 8.0 | 12.9 | 0.00 | 0.00 | 0.00 | 69 | 1016.2 |
| 20260905073854 | 23 | 191 | 11.3 | 16.1 | 0.00 | 0.00 | 0.00 | 69 | 1016.2 |
| 20260905073349 | 23 | 181 | 9.7 | 17.7 | 0.00 | 0.00 | 0.00 | 68 | 1016.3 |
| 20260905072844 | 23 | 175 | 9.7 | 14.5 | 0.00 | 0.00 | 0.00 | 69 | 1016.5 |
| 20260905072339 | 23 | 195 | 8.0 | 12.9 | 0.00 | 0.00 | 0.00 | 70 | 1016.6 |
| 20260905071835 | 23 | 194 | 9.7 | 11.3 | 0.00 | 0.00 | 0.00 | 71 | 1016.5 |
| 20260905071332 | 23 | 175 | 9.7 | 11.3 | 0.00 | 0.00 | 0.00 | 70 | 1016.7 |
| 20260905070831 | 23 | 179 | 9.7 | 12.9 | 0.00 | 0.00 | 0.00 | 70 | 1016.7 |
| 20260905070328 | 23 | 191 | 9.7 | 9.7 | 0.00 | 0.00 | 0.00 | 70 | 1016.7 |
| 20260905065826 | 23 | 195 | 12.9 | 12.9 | 0.00 | 0.00 | 0.00 | 69 | 1016.7 |
| 20260905065325 | 23 | 209 | 8.0 | 9.7 | 0.00 | 0.00 | 0.00 | 69 | 1016.9 |
| 20260905064820 | 23 | 187 | 6.4 | 9.7 | 0.00 | 0.00 | 0.00 | 70 | 1016.7 |
| 20260905064317 | 23 | 205 | 11.3 | 11.3 | 0.00 | 0.00 | 0.00 | 68 | 1016.8 |
| 20260905063815 | 23 | 197 | 11.3 | 12.9 | 0.00 | 0.00 | 0.00 | 68 | 1016.7 |
| 20260905063311 | 23 | 188 | 9.7 | 12.9 | 0.00 | 0.00 | 0.00 | 67 | 1016.8 |
| 20260905062807 | 23 | 189 | 6.4 | 9.7 | 0.00 | 0.00 | 0.00 | 67 | 1016.8 |
| 20260905062307 | 24 | 188 | 9.7 | 11.3 | 0.00 | 0.00 | 0.00 | 66 | 1016.7 |
| 20260905061802 | 25 | 178 | 11.3 | 14.5 | 0.00 | 0.00 | 0.00 | 64 | 1016.8 |
| 20260905061256 | 25 | 202 | 8.0 | 17.7 | 0.00 | 0.00 | 0.00 | 63 | 1016.9 |
| 20260905060756 | 25 | 206 | 9.7 | 12.9 | 0.00 | 0.00 | 0.00 | 64 | 1016.8 |
| 20260905060253 | 25 | 194 | 11.3 | 16.1 | 0.00 | 0.00 | 0.00 | 63 | 1016.7 |
| 20260905055751 | 25 | 188 | 9.7 | 17.7 | 0.00 | 0.00 | 0.00 | 63 | 1016.7 |
| 20260905055246 | 25 | 182 | 8.0 | 14.5 | 0.00 | 0.00 | 0.00 | 62 | 1016.6 |
| 20260905054741 | 26 | 182 | 11.3 | 19.3 | 0.00 | 0.00 | 0.00 | 60 | 1016.3 |
| 20260905054238 | 26 | 180 | 6.4 | 19.3 | 0.00 | 0.00 | 0.00 | 61 | 1016.5 |
| 20260905053737 | 25 | 167 | 12.9 | 14.5 | 0.00 | 0.00 | 0.00 | 61 | 1016.6 |
| 20260905053233 | 25 | 167 | 16.1 | 16.1 | 0.00 | 0.00 | 0.00 | 61 | 1016.3 |
| 20260905052732 | 26 | 180 | 6.4 | 14.5 | 0.00 | 0.00 | 0.00 | 60 | 1016.6 |
| 20260905052227 | 26 | 167 | 6.4 | 9.7 | 0.00 | 0.00 | 0.00 | 60 | 1016.6 |
| 20260905051726 | 26 | 184 | 6.4 | 9.7 | 0.00 | 0.00 | 0.00 | 59 | 1016.5 |
| 20260905051223 | 26 | 218 | 6.4 | 6.4 | 0.00 | 0.00 | 0.00 | 60 | 1016.6 |
| 20260905050720 | 26 | 254 | 3.2 | 3.2 | 0.00 | 0.00 | 0.00 | 60 | 1016.8 |
| 20260905050216 | 26 | 321 | 4.8 | 4.8 | 0.00 | 0.00 | 0.00 | 60 | 1016.6 |
| 20260905045715 | 26 | 333 | 1.6 | 4.8 | 0.00 | 0.00 | 0.00 | 61 | 1016.8 |
| 20260905045211 | 26 | 299 | 4.8 | 4.8 | 0.00 | 0.00 | 0.00 | 60 | 1016.6 |
| 20260905044706 | 26 | 346 | 3.2 | 4.8 | 0.00 | 0.00 | 0.00 | 60 | 1016.5 |
| 20260905044202 | 26 | 89 | 0.0 | 4.8 | 0.00 | 0.00 | 0.00 | 58 | 1016.5 |
| 20260905043700 | 26 | 94 | 0.0 | 8.0 | 0.00 | 0.00 | 0.00 | 57 | 1016.3 |
| 20260905043155 | 27 | 136 | 4.8 | 9.7 | 0.00 | 0.00 | 0.00 | 57 | 1016.5 |
| 20260905042654 | 26 | 155 | 9.7 | 11.3 | 0.00 | 0.00 | 0.00 | 57 | 1016.5 |
| 20260905042148 | 26 | 156 | 8.0 | 16.1 | 0.00 | 0.00 | 0.00 | 58 | 1016.1 |
| 20260905041644 | 26 | 162 | 9.7 | 12.9 | 0.00 | 0.00 | 0.00 | 58 | 1016.5 |
| 20260905041139 | 26 | 163 | 11.3 | 14.5 | 0.00 | 0.00 | 0.00 | 58 | 1016.2 |
| 20260905040634 | 27 | 173 | 9.7 | 16.1 | 0.00 | 0.00 | 0.00 | 58 | 1016.3 |
| 20260905040133 | 27 | 166 | 11.3 | 14.5 | 0.00 | 0.00 | 0.00 | 56 | 1016.2 |
| 20260905035628 | 27 | 166 | 12.9 | 19.3 | 0.00 | 0.00 | 0.00 | 55 | 1016.1 |
| 20260905035125 | 27 | 170 | 16.1 | 19.3 | 0.00 | 0.00 | 0.00 | 54 | 1016.2 |
| 20260905034621 | 28 | 159 | 14.5 | 24.1 | 0.00 | 0.00 | 0.00 | 53 | 1016.2 |
| 20260905034119 | 28 | 164 | 19.3 | 25.7 | 0.00 | 0.00 | 0.00 | 52 | 1016.2 |
| 20260905033614 | 28 | 165 | 17.7 | 25.7 | 0.00 | 0.00 | 0.00 | 51 | 1016.0 |
| 20260905033110 | 28 | 160 | 19.3 | 29.0 | 0.00 | 0.00 | 0.00 | 49 | 1016.1 |
| 20260905032609 | 28 | 157 | 17.7 | 32.2 | 0.00 | 0.00 | 0.00 | 48 | 1015.9 |
| 20260905032109 | 29 | 162 | 24.1 | 29.0 | 0.00 | 0.00 | 0.00 | 46 | 1015.7 |
| 20260905031605 | 29 | 155 | 24.1 | 27.4 | 0.00 | 0.00 | 0.00 | 45 | 1015.8 |
| 20260905031105 | 29 | 152 | 20.9 | 27.4 | 0.00 | 0.00 | 0.00 | 45 | 1015.6 |
| 20260905030600 | 30 | 157 | 16.1 | 27.4 | 0.00 | 0.00 | 0.00 | 42 | 1015.6 |
| 20260905030055 | 31 | 162 | 14.5 | 20.9 | 0.00 | 0.00 | 0.00 | 38 | 1015.5 |
| 20260905025550 | 30 | 154 | 24.1 | 25.7 | 0.00 | 0.00 | 0.00 | 39 | 1015.3 |